Pascagoula Weather Center

Moon Phase Calendar



Online Cameras

 


      

Current Conditions in Pascagoula
11/24/2020 10:28:57 PM

64°F
Feels Like 65
Clear
Humidity
82%
Pressure
30.12"
Wind
3.4 mph (ESE)
Dew Point
59°F
UV Index
4/10 (Moderate)
Visibility
6 mi

Hourly Forecast

Date & Time Tue, Nov 24
10:00 PM
Tue, Nov 24
11:00 PM
Wed, Nov 25
12:00 AM
Wed, Nov 25
1:00 AM
Wed, Nov 25
2:00 AM
Wed, Nov 25
3:00 AM
Wed, Nov 25
4:00 AM
Wed, Nov 25
5:00 AM
Wed, Nov 25
6:00 AM
Wed, Nov 25
7:00 AM
Wed, Nov 25
8:00 AM
Wed, Nov 25
9:00 AM
Wed, Nov 25
10:00 AM
Wed, Nov 25
11:00 AM
Wed, Nov 25
12:00 PM
Wed, Nov 25
1:00 PM
Wed, Nov 25
2:00 PM
Wed, Nov 25
3:00 PM
Wed, Nov 25
4:00 PM
Wed, Nov 25
5:00 PM
Wed, Nov 25
6:00 PM
Wed, Nov 25
7:00 PM
Wed, Nov 25
8:00 PM
Wed, Nov 25
9:00 PM
Wed, Nov 25
10:00 PM
Wed, Nov 25
11:00 PM
Thu, Nov 26
12:00 AM
Thu, Nov 26
1:00 AM
Thu, Nov 26
2:00 AM
Thu, Nov 26
3:00 AM
Thu, Nov 26
4:00 AM
Thu, Nov 26
5:00 AM
Thu, Nov 26
6:00 AM
Thu, Nov 26
7:00 AM
Thu, Nov 26
8:00 AM
Thu, Nov 26
9:00 AM
Thu, Nov 26
10:00 AM
Thu, Nov 26
11:00 AM
Thu, Nov 26
12:00 PM
Thu, Nov 26
1:00 PM
Thu, Nov 26
2:00 PM
Thu, Nov 26
3:00 PM
Thu, Nov 26
4:00 PM
Thu, Nov 26
5:00 PM
Thu, Nov 26
6:00 PM
Thu, Nov 26
7:00 PM
Thu, Nov 26
8:00 PM
Thu, Nov 26
9:00 PM
Condition
Clear

Clear

Clouds

Clouds

Clouds

Clouds

Clouds

Clouds

Clouds

Clear

Clear

Clear

Clear

Rain

Rain

Rain

Rain

Rain

Clouds

Clouds

Clouds

Clear

Clear

Clear

Clear

Clear

Clear

Clear

Clear

Clear

Clear

Clear

Clear

Clouds

Clouds

Rain

Rain

Rain

Rain

Rain

Rain

Rain

Rain

Rain

Clear

Clear

Clear

Clear
Temperature 64°F66°F67°F69°F68°F68°F69°F69°F68°F68°F71°F74°F74°F74°F75°F75°F75°F74°F73°F71°F70°F70°F70°F70°F69°F69°F69°F69°F68°F68°F68°F68°F68°F68°F70°F72°F73°F75°F75°F75°F74°F74°F73°F71°F70°F70°F70°F69°F
Feels Like 60°F63°F64°F65°F65°F66°F67°F66°F67°F69°F72°F73°F73°F73°F73°F74°F74°F74°F73°F72°F71°F71°F71°F70°F70°F71°F71°F71°F71°F72°F72°F72°F72°F74°F76°F78°F80°F81°F79°F79°F78°F77°F77°F74°F74°F73°F73°F73°F
Cloudiness 1%9%15%77%41%34%38%38%32%0%0%0%2%9%10%6%11%28%45%50%46%1%1%0%0%0%0%0%0%1%1%1%2%38%40%40%40%34%35%8%8%5%4%3%3%0%0%0%
Visibility 6 mi6 mi6 mi6 mi6 mi6 mi6 mi6 mi6 mi6 mi6 mi6 mi6 mi6 mi6 mi6 mi6 mi6 mi6 mi6 mi6 mi6 mi6 mi6 mi6 mi6 mi6 mi6 mi6 mi6 mi6 mi6 mi6 mi6 mi6 mi6 mi6 mi6 mi6 mi6 mi6 mi6 mi6 mi6 mi6 mi6 mi6 mi6 mi
Precipitation 0%0%0%2%0%0%0%0%0%0%0%0%0%39%46%71%72%63%56%38%38%0%0%0%0%0%0%0%0%0%0%0%0%10%14%39%26%44%74%64%67%67%63%63%63%1%5%1%
Humidity 82%82%83%83%84%85%84%83%85%88%83%77%75%78%76%76%77%78%82%88%90%90%90%91%92%93%94%94%95%95%95%95%95%95%93%89%86%81%81%82%84%86%89%92%93%92%92%92%
Dew Point 59°F61°F62°F63°F63°F64°F64°F64°F64°F65°F66°F66°F66°F67°F67°F67°F67°F67°F67°F67°F67°F67°F67°F67°F67°F67°F67°F67°F67°F67°F67°F66°F66°F67°F68°F69°F69°F69°F69°F69°F69°F69°F69°F68°F68°F68°F67°F67°F
Pressure 30.12"30.12"30.09"30.09"30.09"30.09"30.09"30.09"30.09"30.09"30.09"30.12"30.12"30.12"30.09"30.06"30.03"30.03"30.03"30.03"30.06"30.06"30.06"30.06"30.06"30.06"30.06"30.06"30.06"30.06"30.06"30.06"30.09"30.09"30.12"30.12"30.12"30.12"30.09"30.06"30.03"30.03"30.03"30.03"30.06"30.06"30.09"30.09"
Wind Speed 11.8 mph12.4 mph12.9 mph14.1 mph13.3 mph12.2 mph12.4 mph12.6 mph10.7 mph8.9 mph9.5 mph11.6 mph12.4 mph12.5 mph12.8 mph12.3 mph12.1 mph12 mph11.3 mph10 mph9.5 mph9.3 mph9 mph9.2 mph9.1 mph8.1 mph7.1 mph6.1 mph5.5 mph4.6 mph3.9 mph3.4 mph2.8 mph1.7 mph1.2 mph1.1 mph1.4 mph2.8 mph5.2 mph6.5 mph6.7 mph6.2 mph5.2 mph5.3 mph5 mph5.5 mph5.8 mph5.4 mph
Wind
Direction
145°
SE
149°
SSE
151°
SSE
151°
SSE
155°
SSE
161°
SSE
165°
SSE
163°
SSE
168°
SSE
174°
S
182°
S
188°
S
187°
S
194°
SSW
200°
SSW
205°
SSW
206°
SSW
201°
SSW
199°
SSW
199°
SSW
198°
SSW
203°
SSW
206°
SSW
208°
SSW
210°
SSW
216°
SW
221°
SW
223°
SW
228°
SW
231°
SW
228°
SW
230°
SW
247°
WSW
261°
W
289°
WNW
290°
WNW
259°
W
210°
SSW
174°
S
177°
S
181°
S
183°
S
173°
S
165°
SSE
164°
SSE
165°
SSE
163°
SSE
171°
S

Daily Forecast

Date High Low Precip. Humidity
Today
Nov 24

Clear
71 °F
52 °F
0%
67%
Wednesday
Nov 25

Rain
75 °F
66 °F
63%
76%
Thursday
Nov 26

Rain
75 °F
68 °F
74%
81%
Friday
Nov 27

Rain
75 °F
68 °F
100%
79%
Saturday
Nov 28

Rain
69 °F
66 °F
100%
86%
Sunday
Nov 29

Rain
72 °F
57 °F
100%
87%
Monday
Nov 30

Clear
56 °F
42 °F
0%
50%
Tuesday
Dec 1

Clear
53 °F
37 °F
0%
47%
Wednesday
Dec 2

Clear
59 °F
41 °F
0%
46%
Thursday
Dec 3

Rain
64 °F
50 °F
96%
87%
Friday
Dec 4

Clear
48 °F
36 °F
4%
59%
Saturday
Dec 5

Clear
53 °F
32 °F
0%
48%
Sunday
Dec 6

Clouds
55 °F
36 °F
0%
42%
Monday
Dec 7

Clouds
55 °F
43 °F
0%
54%
Tuesday
Dec 8

Clouds
60 °F
46 °F
0%
54%
Wednesday
Dec 9

Clouds
64 °F
51 °F
0%
57%


Temperature 8-14 Day Outlook



Precipitation 8-14 Day Outlook




Quick Links
Pascagoula News
Pascagoula Photos
Pascagoula Videos




About Us
Contact Us
Site Map
Search Site
Advertise With Us
   
Pascagoula.USGulf.info
THE PASCAGOULA WEBSITE

Copyright 2020, Coastal Town
Privacy    |    Legal